Regional Weather Roundup
Issued by NWS

Home | Current Version | Previous Version | Graphics & Text | Print | Product List | Glossary On
Versions: 1 2 3 4 5 6 7 8 9 10 11 12 13 14 15 16 17 18 19 20 21 22 23 24 25 26 27 28 29 30 31 32 33 34 35 36 37 38 39 40 41 42 43 44 45 46 47 48 49 50
000
ASUS45 KABQ 272310
RWRNM
NEW MEXICO REGIONAL WEATHER ROUNDUP
NATIONAL WEATHER SERVICE ALBUQUERQUE NM
500 PM MDT SAT AUG 27 2016

NOTE: "FAIR" MEANS FEW OR NO CLOUDS BELOW 12,000 FEET AGL WITH NO
       SIGNIFICANT WEATHER OR OBSTRUCTIONS TO VISION.

      THIS PRODUCT IS RELEASED AS TWO VERSIONS.  ONE VERSION NEAR
      THE TOP OF THE HOUR CONTAINING PRELIMINARY DATA FROM ALBUQUERQUE
      AND OTHER STATIONS.  A FINAL VERSION WITH ADDITIONAL DATA IS
      ISSUED ABOUT 10 MINUTES AFTER THE HOUR.

NMZ501-503-504-510>518-280000-
NORTHWEST PLATEAU/NORTHCENTRAL MOUNTAINS

CITY           SKY/WX    TMP DP  RH WIND       PRES   REMARKS
FARMINGTON     LGT RAIN  69  50  50 SW6       30.19R
SANTA FE       FAIR      80  38  22 W8        30.15S
TAOS           FAIR      73  36  25 CALM      30.22S
ANGEL FIRE     FAIR      67  36  31 W15       30.31S

$$
NMZ402-403-502-505>509-280000-
WESTCENTRAL MOUNTAINS/SOUTHWEST MOUNTAINS

CITY           SKY/WX    TMP DP  RH WIND       PRES   REMARKS
GALLUP         FAIR      65  49  56 SW9       30.24F
GRANTS         CLOUDY    65  47  51 N10G18    30.26R
SILVER CITY    CLOUDY    74  56  51 NE10      30.12S

$$
NMZ407-409-411-412-280000-
SOUTHERN DESERTS

CITY           SKY/WX    TMP DP  RH WIND       PRES   REMARKS
DEMING         FAIR      82  53  36 W8        30.04R
LAS CRUCES     PTSUNNY   88  52  28 S5        30.03S
ALAMOGORDO     FAIR      86  50  28 W3        30.02S
T OR C         FAIR      79  49  34 W6        30.08S

$$
NMZ519>523-280000-
CENTRAL VALLEYS/CENTRAL HIGHLANDS

CITY           SKY/WX    TMP DP  RH WIND       PRES   REMARKS
ALBUQUERQUE    PTSUNNY   72  49  44 W28G37    30.16R THUNDER
DOUBLE EAGLE   TSTM      66  55  68 SW14G39   30.21R
MORIARTY ARPT  FAIR      76  44  31 SE12      30.16S
CLINES CORNERS PTSUNNY   71  45  39 N6        30.22S
BELEN          DRIZZLE   65  57  75 W17G24    30.18S
SOCORRO        FAIR      80  38  21 NW12G20   30.10R

$$
NMZ524>526-539-540-280000-
SOUTHCENTRAL MOUNTAINS

CITY           SKY/WX    TMP DP  RH WIND       PRES   REMARKS
RUIDOSO        NOT AVBL

$$
NMZ527>531-280000-
NORTHEAST HIGHLANDS/NORTHEAST PLAINS

CITY           SKY/WX    TMP DP  RH WIND       PRES   REMARKS
LAS VEGAS      FAIR      78  44  29 SW15G22   30.18S
RATON          FAIR      71  45  39 N12       30.13S
CLAYTON        FAIR      79  59  50 S10       30.06S

$$
NMZ532>537-280000-
EASTCENTRAL PLAINS

CITY           SKY/WX    TMP DP  RH WIND       PRES   REMARKS
TUCUMCARI      FAIR      90  48  23 SE8       29.98S
CANNON AFB     FAIR      87  48  25 SW8       30.03S
CLOVIS AIRPORT FAIR      84  57  39 SE10      30.04S

$$
NMZ028-029-538-280000-
SOUTHEAST PLAINS

CITY           SKY/WX    TMP DP  RH WIND       PRES   REMARKS
ROSWELL        FAIR      87  51  28 SW6       29.99F
ARTESIA        FAIR      86  57  37 SE5       29.99S
CARLSBAD       FAIR      87  58  37 S7        29.97F
HOBBS          MOSUNNY   86  59  39 S9        30.02F


$$




USA.gov is the U.S. government's official web portal to all federal, state and local government web resources and services.